Tracking 31027 objects as of 19-Jul-2025
HD Live streaming from Space Station
objects crossing your sky now

FENGYUN 1C DEB

Track FENGYUN 1C DEB now!
10-day predictions


NORAD ID: 36188
Int'l Code: 1999-025DTM
Perigee: 675.2 km
Apogee: 748.7 km
Inclination: 98.6 °
Period: 98.9 minutes
Semi major axis: 7082 km
RCS: 0.0031 m2 (small)
Launch date: May 10, 1999
Source: People's Republic of China (PRC)
Launch site: Taiyaun Space Center, China (TSC)

Note: This is SATELLITE DEBRIS
Your satellite tracking list
STARLINK-6351
Track 1 satellite(s)




NASA's NSSDC Master Catalog

Two Line Element Set (TLE):
1 36188U 99025DTM 25198.72743522  .00006107  00000-0  13613-2 0  9998
2 36188  98.5859 294.3633 0051895  43.5621 316.9656 14.56408819863527
Source of the keplerian elements: AFSPC